User: anonymous   Login
Location: Unspecified
(0.0000°N, 0.0000°E)
Time: 10:08:38
(UTC+00:00)
Language:

APRIZESAT 1 (LATINSAT C) - Orbit

View from above orbital plane
View from above orbital plane
View from above satellite
View from above satellite

Ground track
Ground track

The orbit is defined by the following mean orbital elements,

1 28372U          26133.48914160 +.00000000 +00000-0 +48370-4 0 00009
2 28372  98.6316 143.2685 0043417 260.5191  99.1094 14.51759162    02
Epoch (UTC): 13 May 2026 11:44:21
Eccentricity: 0.0043417
inclination: 98.6316°
perigee height: 689 km
apogee height: 751 km
right ascension of ascending node: 143.2685°
argument of perigee: 260.5191°
revolutions per day: 14.51759162
mean anomaly at epoch: 99.1094°

The dashed part of the orbit path shows where the satellite is in the earth's shadow,  

DLR